DW1389 Weather Reports


Display with metric or nautical units.
time (UTC)temp
F
wind
direction
speed
MPH
gust
MPH
rain 1hr
in
rain 24hr
in
rain mn
in
humidity
%
barometer
mb
20260504150730 71 257 4.0 9.0 0.00 0.00 0.00 70 1014.3
20260504150516 70 140 4.0 8.0 0.00 0.00 0.00 72 1014.3
20260504141229 68 242 4.0 21.0 0.00 0.00 0.00 73 1014.4
20260504140729 68 49 3.0 17.0 0.00 0.00 0.00 74 1014.4
20260504140229 67 219 3.0 18.0 0.00 0.00 0.00 75 1014.4
20260504130730 64 224 3.0 4.0 0.00 0.00 0.00 80 1014.4
20260504130230 63 225 3.0 4.0 0.00 0.00 0.00 80 1014.4
20260504120230 59 343 2.0 6.0 0.00 0.00 0.00 87 1013.6
20260504110228 59 155 3.0 5.0 0.00 0.00 0.00 86 1013.9
20260504081730 61 308 3.0 6.0 0.00 0.00 0.00 81 1014.5
20260504081229 61 342 3.0 6.0 0.00 0.00 0.00 81 1014.7
20260504080730 61 7 3.0 7.0 0.00 0.00 0.00 81 1014.6
20260504080230 62 228 2.0 7.0 0.00 0.00 0.00 80 1014.7
20260504070229 63 231 4.0 10.0 0.00 0.00 0.00 76 1015.9
20260504060229 64 218 3.0 6.0 0.00 0.00 0.00 74 1016.5
20260504050720 65 214 4.0 13.0 0.00 0.00 0.00 70 1016.8
20260504050214 65 230 4.0 13.0 0.00 0.00 0.00 70 1016.7
20260504045712 65 228 4.0 12.0 0.00 0.00 0.00 69 1016.6
20260504045500 66 226 4.0 11.0 0.00 0.00 0.00 69 1016.6
20260504044959 66 52 4.0 11.0 0.00 0.00 0.00 69 1016.7
20260504044211 66 226 4.0 10.0 0.00 0.00 0.00 68 1016.9
20260504043711 66 63 4.0 8.0 0.00 0.00 0.00 68 1016.8
20260504043212 66 55 3.0 8.0 0.00 0.00 0.00 68 1016.8
20260504042712 66 51 3.0 5.0 0.00 0.00 0.00 67 1016.8
20260504042212 67 50 3.0 5.0 0.00 0.00 0.00 67 1016.8
20260504041712 67 46 3.0 7.0 0.00 0.00 0.00 66 1016.9
20260504041208 66 217 3.0 7.0 0.00 0.00 0.00 66 1016.9
20260504040708 67 104 3.0 6.0 0.00 0.00 0.00 65 1016.9
20260504040202 67 190 3.0 6.0 0.00 0.00 0.00 64 1016.9
20260504035950 67 86 3.0 7.0 0.00 0.00 0.00 63 1017.0
20260504035448 67 84 3.0 7.0 0.00 0.00 0.00 62 1017.0
20260504034702 67 222 3.0 6.0 0.00 0.00 0.00 61 1016.9
20260504034201 67 181 2.0 4.0 0.00 0.00 0.00 61 1016.8
20260504033704 67 82 2.0 4.0 0.00 0.00 0.00 61 1016.8
20260504033433 67 189 2.0 4.0 0.00 0.00 0.00 61 1016.7
20260504032700 67 194 2.0 4.0 0.00 0.00 0.00 61 1016.7
20260504032201 67 225 2.0 5.0 0.00 0.00 0.00 61 1016.8
20260504031936 67 224 2.0 5.0 0.00 0.00 0.00 60 1016.8
20260504031201 67 70 2.0 4.0 0.00 0.00 0.00 60 1016.8
20260504030701 67 58 2.0 4.0 0.00 0.00 0.00 60 1016.7
20260504030201 67 220 2.0 4.0 0.00 0.00 0.00 60 1016.8
20260504025701 67 223 2.0 4.0 0.00 0.00 0.00 60 1016.7
20260504025201 67 42 2.0 4.0 0.00 0.00 0.00 60 1016.7
20260504024701 67 70 2.0 8.0 0.00 0.00 0.00 60 1016.8
20260504024151 67 227 2.0 8.0 0.00 0.00 0.00 60 1016.8
20260504023910 67 201 2.0 3.0 0.00 0.00 0.00 60 1016.7
20260504023145 67 206 2.0 5.0 0.00 0.00 0.00 60 1016.6
20260504022645 67 215 2.0 5.0 0.00 0.00 0.00 61 1016.7
20260504022146 67 221 2.0 4.0 0.00 0.00 0.00 63 1016.7
20260504021646 67 220 2.0 3.0 0.00 0.00 0.00 62 1016.7
20260504021145 68 34 2.0 4.0 0.00 0.00 0.00 61 1016.6
20260504020646 68 238 2.0 4.0 0.00 0.00 0.00 60 1016.5
20260504020146 68 190 2.0 3.0 0.00 0.00 0.00 59 1016.5
20260504015646 69 350 1.0 3.0 0.00 0.00 0.00 58 1016.3
20260504015146 69 2 1.0 3.0 0.00 0.00 0.00 57 1016.2
20260504014646 69 245 1.0 2.0 0.00 0.00 0.00 57 1016.2
20260504014145 69 219 0.0 2.0 0.00 0.00 0.00 57 1016.1
20260504013646 70 3 1.0 2.0 0.00 0.00 0.00 55 1016.2
20260504013146 70 0 0.0 2.0 0.00 0.00 0.00 54 1016.1
20260504012646 71 343 1.0 2.0 0.00 0.00 0.00 54 1016.1
20260504012130 72 219 1.0 2.0 0.00 0.00 0.00 53 1016.2
20260504011631 72 111 1.0 3.0 0.00 0.00 0.00 51 1016.2
20260504011131 73 258 1.0 3.0 0.00 0.00 0.00 49 1016.2
20260504010629 73 250 1.0 3.0 0.00 0.00 0.00 49 1016.1
20260504010129 73 276 1.0 4.0 0.00 0.00 0.00 48 1016.1
20260504005629 74 171 1.0 4.0 0.00 0.00 0.00 48 1016.0
20260504005128 74 217 1.0 4.0 0.00 0.00 0.00 47 1016.0
20260504004630 74 309 1.0 4.0 0.00 0.00 0.00 47 1016.0
20260504004129 74 130 1.0 4.0 0.00 0.00 0.00 47 1016.0
20260504003628 75 167 2.0 5.0 0.00 0.00 0.00 47 1016.1
20260504003127 75 171 2.0 5.0 0.00 0.00 0.00 46 1016.1
20260504002626 75 246 2.0 4.0 0.00 0.00 0.00 45 1016.1
20260504002122 75 241 2.0 6.0 0.00 0.00 0.00 45 1016.2
20260504001909 75 214 2.0 6.0 0.00 0.00 0.00 45 1016.2
20260504001123 76 274 2.0 6.0 0.00 0.00 0.00 44 1016.3
20260504000908 76 124 2.0 6.0 0.00 0.00 0.00 43 1016.4
20260504000123 76 280 2.0 8.0 0.00 0.00 0.00 43 1016.5
20260503235623 76 124 2.0 8.0 0.00 0.00 0.00 42 1016.5
20260503235124 77 293 2.0 5.0 0.00 0.00 0.00 42 1016.5
20260503234623 77 91 2.0 5.0 0.00 0.00 0.00 43 1016.5
20260503234409 77 191 2.0 5.0 0.00 0.00 0.00 44 1016.6
20260503233624 76 333 2.0 5.0 0.00 0.00 0.00 43 1016.7
20260503233125 76 290 2.0 5.0 0.00 0.00 0.00 43 1016.7
20260503232906 77 231 2.0 5.0 0.00 0.00 0.00 43 1016.6
20260503232122 77 303 2.0 6.0 0.00 0.00 0.00 42 1016.7
20260503231618 77 152 2.0 6.0 0.00 0.00 0.00 42 1016.6
20260503231118 78 20 3.0 7.0 0.00 0.00 0.00 42 1016.5
20260503230617 78 228 3.0 8.0 0.00 0.00 0.00 42 1016.4
20260503230115 79 279 2.0 8.0 0.00 0.00 0.00 40 1016.6
20260503225616 79 106 2.0 7.0 0.00 0.00 0.00 41 1016.7
20260503225115 79 214 3.0 7.0 0.00 0.00 0.00 41 1016.6
20260503224615 79 202 4.0 9.0 0.00 0.00 0.00 42 1016.7
20260503224403 79 201 3.0 9.0 0.00 0.00 0.00 42 1016.9
20260503223616 80 283 3.0 8.0 0.00 0.00 0.00 41 1016.8
20260503223116 80 173 3.0 8.0 0.00 0.00 0.00 42 1016.9
20260503222904 80 253 3.0 7.0 0.00 0.00 0.00 42 1016.9
20260503222117 80 272 2.0 7.0 0.00 0.00 0.00 42 1017.0
20260503221617 80 297 2.0 7.0 0.00 0.00 0.00 42 1017.1
20260503221116 80 288 3.0 8.0 0.00 0.00 0.00 41 1017.1
20260503220901 80 211 3.0 8.0 0.00 0.00 0.00 42 1017.2
20260503220116 80 197 3.0 7.0 0.00 0.00 0.00 42 1017.2
20260503215905 80 302 3.0 7.0 0.00 0.00 0.00 41 1017.3
20260503215116 80 181 2.0 7.0 0.00 0.00 0.00 41 1017.3
20260503214616 79 282 2.0 7.0 0.00 0.00 0.00 42 1017.4
20260503214116 79 270 3.0 10.0 0.00 0.00 0.00 42 1017.6
20260503213618 78 182 3.0 10.0 0.00 0.00 0.00 42 1017.7
20260503213358 78 250 3.0 8.0 0.00 0.00 0.00 43 1017.8
20260503212617 78 239 3.0 8.0 0.00 0.00 0.00 43 1017.8
20260503212116 78 29 2.0 6.0 0.00 0.00 0.00 41 1017.9
20260503211617 79 155 2.0 9.0 0.00 0.00 0.00 40 1017.9
20260503211116 79 286 2.0 9.0 0.00 0.00 0.00 40 1018.1
20260503210616 79 193 3.0 8.0 0.00 0.00 0.00 41 1018.3
20260503210117 80 140 3.0 8.0 0.00 0.00 0.00 40 1018.3
20260503205618 79 254 3.0 8.0 0.00 0.00 0.00 41 1018.2
20260503205400 79 241 3.0 7.0 0.00 0.00 0.00 40 1018.4
20260503204614 79 57 3.0 7.0 0.00 0.00 0.00 42 1018.4
20260503204357 79 72 2.0 7.0 0.00 0.00 0.00 42 1018.6
20260503203924 79 264 3.0 9.0 0.00 0.00 0.00 42 1018.7
20260503203920 79 53 2.0 7.0 0.00 0.00 0.00 44 1018.5
20260503202609 79 114 3.0 9.0 0.00 0.00 0.00 44 1019.0
20260503202109 80 7 3.0 7.0 0.00 0.00 0.00 44 1019.0
20260503201606 79 289 3.0 8.0 0.00 0.00 0.00 43 1019.0
20260503201102 79 267 3.0 8.0 0.00 0.00 0.00 44 1019.1
20260503200602 79 356 3.0 7.0 0.00 0.00 0.00 43 1019.2
20260503195841 79 135 4.0 9.0 0.00 0.00 0.00 44 1019.4
20260503195344 79 248 3.0 8.0 0.00 0.00 0.00 44 1019.4
20260503194602 79 197 2.0 7.0 0.00 0.00 0.00 43 1019.5
20260503194103 79 141 3.0 8.0 0.00 0.00 0.00 42 1019.5
20260503193600 79 164 3.0 8.0 0.00 0.00 0.00 42 1019.5
20260503193339 79 203 2.0 7.0 0.00 0.00 0.00 44 1019.8
20260503192556 79 311 2.0 7.0 0.00 0.00 0.00 42 1019.8
20260503192055 78 143 3.0 8.0 0.00 0.00 0.00 42 1019.8
20260503191553 78 87 3.0 8.0 0.00 0.00 0.00 44 1020.0
20260503191055 78 125 3.0 9.0 0.00 0.00 0.00 41 1019.9
20260503190555 78 122 3.0 9.0 0.00 0.00 0.00 39 1020.0
20260503190055 78 166 3.0 8.0 0.00 0.00 0.00 46 1020.2
20260503185837 78 175 3.0 8.0 0.00 0.00 0.00 45 1020.3
20260503185055 78 317 3.0 7.0 0.00 0.00 0.00 45 1020.3
20260503184555 78 57 3.0 7.0 0.00 0.00 0.00 44 1020.4
20260503184055 78 262 3.0 8.0 0.00 0.00 0.00 44 1020.5
20260503183555 78 351 3.0 8.0 0.00 0.00 0.00 44 1020.6
20260503183052 78 48 3.0 8.0 0.00 0.00 0.00 45 1020.6
20260503182552 78 117 2.0 10.0 0.00 0.00 0.00 45 1020.7
20260503182051 78 220 3.0 10.0 0.00 0.00 0.00 46 1020.9
20260503181549 78 238 3.0 8.0 0.00 0.00 0.00 43 1020.9
20260503181049 78 295 2.0 6.0 0.00 0.00 0.00 44 1021.1
20260503180549 77 307 3.0 9.0 0.00 0.00 0.00 45 1021.2
20260503180047 77 153 3.0 9.0 0.00 0.00 0.00 48 1021.3
20260503175545 78 216 3.0 9.0 0.00 0.00 0.00 46 1021.3
20260503175045 78 348 3.0 8.0 0.00 0.00 0.00 46 1021.3
20260503174546 78 289 3.0 8.0 0.00 0.00 0.00 45 1021.4
20260503174047 78 221 3.0 8.0 0.00 0.00 0.00 45 1021.5
20260503173547 78 236 2.0 7.0 0.00 0.00 0.00 46 1021.5
20260503173047 78 24 2.0 7.0 0.00 0.00 0.00 44 1021.5
20260503172828 78 177 3.0 6.0 0.00 0.00 0.00 46 1021.7
20260503172047 77 321 3.0 6.0 0.00 0.00 0.00 46 1021.7
20260503171546 77 238 2.0 6.0 0.00 0.00 0.00 47 1021.8
20260503171045 77 54 3.0 7.0 0.00 0.00 0.00 44 1021.8
20260503170546 77 281 3.0 7.0 0.00 0.00 0.00 45 1021.9
20260503170327 77 274 2.0 6.0 0.00 0.00 0.00 45 1022.0